CDT,Max TemperatureF,Mean TemperatureF,Min TemperatureF,Max Dew PointF,MeanDew PointF,Min DewpointF,Max Humidity, Mean Humidity, Min Humidity, Max Sea Level PressureIn, Mean Sea Level PressureIn, Min Sea Level PressureIn, Max VisibilityMiles, Mean VisibilityMiles, Min VisibilityMiles, Max Wind SpeedMPH, Mean Wind SpeedMPH, Max Gust SpeedMPH,PrecipitationIn, CloudCover, Events, WindDirDegrees
2013-5-1,82,68,55,63,57,53,91,68,45,30.08,30.01,29.95,10,10,9,14,7,17,0.00,2,Rain-Thunderstorm,134
2013-5-2,63,50,37,61,46,37,100,96,87,30.22,30.18,30.06,10,9,5,16,10,22,0.02,7,Rain,323
2013-5-3,38,34,32,38,35,32,100,100,100,30.16,29.98,29.87,10,9,6,13,10,,0.47,8,Rain-Snow,302
2013-5-4,47,40,32,42,35,32,100,89,62,30.01,29.89,29.83,10,10,7,12,4,,0.01,8,Rain-Snow,166
2013-5-5,54,46,38,54,48,38,100,99,93,30.04,29.99,29.95,10,8,0,10,6,,0.08,8,Fog-Rain,303
2013-5-6,68,60,53,57,54,52,100,90,60,30.04,29.99,29.94,10,8,2,15,10,20,0.02,7,Rain,329
2013-5-7,78,66,55,56,50,42,89,61,30,30.07,30.02,29.97,10,10,10,13,6,,0.00,4,,341
2013-5-8,78,64,51,60,55,51,100,71,40,30.06,30.02,29.96,10,10,4,12,6,,0.00,3,,161
2013-5-9,76,68,60,64,60,57,100,83,54,29.97,29.93,29.88,10,9,1,14,7,28,0.28,6,Rain-Thunderstorm,198
2013-5-10,68,62,53,61,57,53,100,92,62,30.03,29.95,29.88,10,10,10,12,6,,0.01,7,Rain,300
2013-5-11,70,58,46,53,45,32,100,77,26,30.19,30.07,30.04,10,6,0,17,5,26,0.00,1,Fog,296
2013-5-12,64,48,32,41,31,25,99,51,23,30.30,30.22,30.16,10,10,10,13,5,20,0.00,0,,320
2013-5-13,77,59,42,51,42,35,92,56,30,30.24,30.15,30.02,10,10,10,12,5,,0.00,2,,156
2013-5-14,90,73,57,52,50,46,78,44,24,30.01,29.95,29.90,10,10,9,16,8,25,0.00,0,,221
2013-5-15,85,74,64,66,60,51,94,65,48,29.98,29.93,29.87,10,10,10,13,6,20,0.00,1,Rain,202
2013-5-16,73,66,60,64,61,55,100,86,62,29.95,29.92,29.88,10,10,10,16,5,21,0.00,7,Rain,131
2013-5-17,77,68,60,65,62,61,100,93,63,29.97,29.93,29.89,10,8,0,8,5,,0.00,6,Fog,134
2013-5-18,84,71,60,72,66,61,100,88,60,29.99,29.95,29.85,10,6,0,13,7,17,0.01,5,Fog,143
2013-5-19,87,78,68,73,69,64,100,87,48,29.92,29.83,29.69,10,6,2,20,7,29,0.00,4,Rain,152
2013-5-20,75,68,60,72,65,59,100,94,68,29.92,29.82,29.73,10,8,2,15,9,32,0.85,7,Rain-Thunderstorm,154
2013-5-21,72,66,60,64,61,59,95,85,64,29.84,29.77,29.67,10,10,10,14,7,22,0.00,4,Rain,190
2013-5-22,72,64,56,60,57,54,100,76,57,29.94,29.82,29.73,10,10,10,13,7,26,0.00,5,,253
2013-5-23,69,62,54,56,55,52,99,79,60,30.21,30.08,29.92,10,10,10,15,7,20,0.00,3,,327
2013-5-24,73,60,48,54,45,36,100,68,26,30.40,30.30,30.23,10,9,1,10,5,,0.00,0,,109
2013-5-25,77,62,47,63,54,43,88,71,53,30.26,30.20,30.10,10,10,10,13,7,20,0.00,2,,147
2013-5-26,85,70,57,67,63,57,98,75,52,30.15,30.08,30.00,10,10,8,15,7,20,0.00,1,,160
2013-5-27,81,72,65,70,66,63,100,79,65,30.02,29.91,29.79,10,10,10,15,8,28,0.00,4,Thunderstorm,166
2013-5-28,80,72,66,70,67,64,100,85,66,29.90,29.86,29.78,10,10,6,16,10,24,0.08,6,Rain-Thunderstorm,161
2013-5-29,83,74,65,67,65,62,97,72,55,29.94,29.88,29.79,10,10,10,20,10,29,0.00,2,,162
2013-5-30,83,72,62,70,66,63,100,88,58,29.91,29.84,29.78,10,8,1,25,12,34,1.16,6,Rain-Thunderstorm,162
2013-5-31,83,74,64,74,68,64,100,89,70,29.90,29.82,29.72,10,8,2,24,11,29,0.91,6,Rain-Thunderstorm,187